EW8735 Weather Reports


Display with metric or nautical units.
time (UTC)temp
F
wind
direction
speed
MPH
gust
MPH
rain 1hr
in
rain 24hr
in
rain mn
in
humidity
%
barometer
mb
20260507223053 75 22 0.0 0.0 0.00 0.00 0.00 21 1010.7
20260507221550 76 37 0.0 0.0 0.00 0.00 0.00 25 1010.9
20260507220047 75 37 0.0 0.0 0.00 0.00 0.00 23 1011.2
20260507214548 75 58 0.0 0.0 0.00 0.00 0.00 26 1011.3
20260507213050 74 57 0.0 0.0 0.00 0.00 0.00 24 1011.5
20260507211549 74 343 0.0 0.0 0.00 0.00 0.00 31 1011.7
20260507210042 73 252 0.0 0.0 0.00 0.00 0.00 27 1011.8
20260507204536 72 244 0.0 0.0 0.00 0.00 0.00 29 1012.0
20260507203032 71 244 0.0 0.0 0.00 0.00 0.00 30 1012.1
20260507201539 70 244 0.0 0.0 0.00 0.00 0.00 29 1012.2
20260507200035 70 242 0.0 0.0 0.00 0.00 0.00 29 1012.4
20260507194528 70 243 0.0 0.0 0.00 0.00 0.00 35 1012.5
20260507193025 69 243 0.0 0.0 0.00 0.00 0.00 35 1012.5
20260507191526 69 243 0.0 0.0 0.00 0.00 0.00 36 1012.6
20260507190022 68 243 0.0 0.0 0.00 0.00 0.00 42 1012.7
20260507184520 68 243 0.0 0.0 0.00 0.00 0.00 38 1012.8
20260507183018 67 243 0.0 0.0 0.00 0.00 0.00 39 1013.0
20260507181517 66 242 0.0 0.0 0.00 0.00 0.00 38 1013.0
20260507180034 67 242 0.0 0.0 0.00 0.00 0.00 40 1013.0
20260507174519 67 243 0.0 0.0 0.00 0.00 0.00 43 1013.0
20260507173018 66 243 0.0 0.0 0.00 0.00 0.00 46 1013.1
20260507171508 64 216 0.0 0.0 0.00 0.00 0.00 50 1013.1
20260507170021 64 217 0.0 0.0 0.00 0.00 0.00 50 1013.2
20260507164504 63 216 0.0 0.0 0.00 0.00 0.00 53 1013.2
20260507163004 63 218 0.0 0.0 0.00 0.00 0.00 54 1013.3
20260507161505 63 218 0.0 0.0 0.00 0.00 0.00 51 1013.4
20260507160059 61 217 0.0 0.0 0.00 0.00 0.00 55 1013.3
20260507154557 60 218 0.0 0.0 0.00 0.00 0.00 56 1013.2
20260507153103 59 218 0.0 0.0 0.00 0.00 0.00 58 1013.3
20260507151549 57 218 0.0 0.0 0.00 0.00 0.00 62 1013.3
20260507150050 54 217 0.0 0.0 0.00 0.00 0.00 69 1013.5
20260507144546 51 217 0.0 0.0 0.00 0.00 0.00 74 1013.5
20260507143057 50 218 0.0 0.0 0.00 0.00 0.00 76 1013.4
20260507141547 48 218 0.0 0.0 0.00 0.00 0.00 76 1013.4
20260507140042 47 217 0.0 0.0 0.00 0.00 0.00 79 1013.2
20260507134540 47 217 0.0 0.0 0.00 0.00 0.00 79 1012.9
20260507133044 46 219 0.0 0.0 0.00 0.00 0.00 78 1012.6
20260507131545 47 219 0.0 0.0 0.00 0.00 0.00 76 1012.6
20260507130036 48 218 0.0 0.0 0.00 0.00 0.00 72 1012.6
20260507124528 52 218 0.0 0.0 0.00 0.00 0.00 66 1012.6
20260507123026 52 219 0.0 0.0 0.00 0.00 0.00 65 1012.4
20260507121527 52 218 0.0 0.0 0.00 0.00 0.00 65 1012.5
20260507120027 52 218 0.0 0.0 0.00 0.00 0.00 64 1012.4
20260507114524 53 218 0.0 0.0 0.00 0.00 0.00 62 1012.5
20260507113026 53 219 0.0 0.0 0.00 0.00 0.00 60 1012.5
20260507111523 52 219 0.0 0.0 0.00 0.00 0.00 61 1012.4
20260507110022 53 218 0.0 0.0 0.00 0.00 0.00 60 1012.4
20260507104521 53 218 0.0 0.0 0.00 0.00 0.00 60 1012.4
20260507103020 52 218 0.0 0.0 0.00 0.00 0.00 62 1012.3
20260507101519 51 219 0.0 0.0 0.00 0.00 0.00 66 1012.5
20260507100018 51 218 0.0 0.0 0.00 0.00 0.00 65 1012.3
20260507094517 51 219 0.0 0.0 0.00 0.00 0.00 64 1012.4
20260507093016 53 218 0.0 0.0 0.00 0.00 0.00 62 1012.5
20260507091511 54 219 0.0 0.0 0.00 0.00 0.00 58 1012.4
20260507090011 53 218 0.0 0.0 0.00 0.00 0.00 61 1012.3
20260507084529 53 218 0.0 0.0 0.00 0.00 0.00 61 1012.3
20260507083006 54 219 0.0 0.0 0.00 0.00 0.00 58 1012.3
20260507081504 55 218 0.0 0.0 0.00 0.00 0.00 57 1012.3
20260507080003 55 218 0.0 0.0 0.00 0.00 0.00 56 1012.1
20260507074608 55 218 0.0 0.0 0.00 0.00 0.00 58 1012.0
20260507073102 54 218 0.0 0.0 0.00 0.00 0.00 59 1012.1
20260507071605 55 218 0.0 0.0 0.00 0.00 0.00 58 1011.9
20260507070104 56 218 0.0 0.0 0.00 0.00 0.00 57 1012.1
20260507064556 56 219 0.0 0.0 0.00 0.00 0.00 57 1012.1
20260507063051 57 218 0.0 0.0 0.00 0.00 0.00 56 1012.0
20260507061551 56 218 0.0 0.0 0.00 0.00 0.00 56 1011.9
20260507060051 58 218 0.0 0.0 0.00 0.00 0.00 55 1011.9
20260507054609 60 218 0.0 0.0 0.00 0.00 0.00 51 1011.8
20260507053102 62 219 0.0 0.0 0.00 0.00 0.00 47 1011.8
20260507051555 64 219 0.0 0.0 0.00 0.00 0.00 43 1011.8
20260507050054 64 220 0.0 0.0 0.00 0.00 0.00 43 1011.6
20260507044555 65 214 0.0 0.0 0.00 0.00 0.00 42 1011.8
20260507043049 64 214 0.0 0.0 0.00 0.00 0.00 43 1011.8
20260507041559 66 214 0.0 0.0 0.00 0.00 0.00 42 1011.8
20260507040049 68 218 0.0 0.0 0.00 0.00 0.00 40 1011.5
20260507034548 68 224 0.0 0.0 0.00 0.00 0.00 38 1011.2
20260507033047 69 239 0.0 0.0 0.00 0.00 0.00 36 1011.1
20260507031546 70 241 0.0 0.0 0.00 0.00 0.00 36 1010.9
20260507030046 70 254 0.0 0.0 0.00 0.00 0.00 35 1010.6
20260507024551 71 228 0.0 0.0 0.00 0.00 0.00 35 1010.6
20260507023045 70 261 0.0 0.0 0.00 0.00 0.00 37 1010.5
20260507021557 71 262 0.0 0.0 0.00 0.00 0.00 37 1010.5
20260507020105 71 268 0.0 0.0 0.00 0.00 0.00 35 1010.2
20260507014606 72 287 0.0 0.0 0.00 0.00 0.00 37 1010.1
20260507013047 74 299 0.0 0.0 0.00 0.00 0.00 36 1010.0
20260507011553 74 311 0.0 0.0 0.00 0.00 0.00 36 1009.9
20260507010045 74 273 0.0 0.0 0.00 0.00 0.00 36 1009.8
20260507004541 75 273 0.0 0.0 0.00 0.00 0.00 35 1009.6
20260507003041 76 264 0.0 0.0 0.00 0.00 0.00 31 1009.4
20260507001556 77 254 0.0 0.0 0.00 0.00 0.00 32 1009.3
20260507000053 77 265 0.0 0.0 0.00 0.00 0.00 33 1009.4
20260506234558 79 261 0.0 0.0 0.00 0.00 0.00 33 1009.3
20260506233046 78 263 0.0 0.0 0.00 0.00 0.00 34 1009.2
20260506231539 78 261 0.0 0.0 0.00 0.00 0.00 31 1009.2
20260506230038 79 261 0.0 0.0 0.00 0.00 0.00 33 1009.2
20260506224538 80 266 0.0 0.0 0.00 0.00 0.00 33 1009.3